1503511200.25,23508,17.38,73960.0,-0.35,-4.65,-7.49,0,*67
1503511201.45,23509,17.44,73966.8,-0.37,-4.77,-7.53,0,*6C
1503511202.66,23510,17.38,73960.5,-0.35,-4.53,-7.49,0,*6B
1503511203.9,23511,17.38,73962.8,-0.35,-4.49,-7.35,0,*6A
1503511205.09,23512,17.38,73962.0,-0.37,-4.57,-7.53,0,*64
1503511206.33,23513,17.38,73966.5,-0.35,-4.65,-7.77,0,*60
1503511207.54,23514,17.38,73960.5,-0.35,-4.53,-7.49,0,*6F
1503511208.78,23515,17.44,73962.5,-0.35,-4.41,-7.35,0,*66
1503511210.02,23516,17.44,73964.5,-0.35,-4.49,-7.35,0,*6D
1503511211.26,23517,17.38,73964.3,-0.35,-4.41,-7.35,0,*64
1503511212.47,23518,17.38,73964.0,-0.37,-4.37,-7.31,0,*6C
1503511213.68,23519,17.38,73966.0,-0.35,-4.37,-7.15,0,*69
1503511214.91,23520,17.38,73966.0,-0.35,-4.33,-7.11,0,*63
1503511216.13,23521,17.38,73964.0,-0.35,-4.33,-7.11,0,*62
1503511217.35,23522,17.38,73966.0,-0.35,-4.37,-7.23,0,*64
1503511218.56,23523,17.38,73966.0,-0.37,-4.41,-7.31,0,*65
1503511219.8,23524,17.38,73964.5,-0.35,-4.37,-7.27,0,*66
1503511221.01,23525,17.44,73964.3,-0.35,-4.37,-7.23,0,*63
1503511222.25,23526,17.44,73964.3,-0.35,-4.37,-7.27,0,*64
1503511223.46,23527,17.38,73962.0,-0.37,-4.45,-7.31,0,*65
1503511224.7,23528,17.38,73964.3,-0.35,-4.49,-7.27,0,*63
1503511225.94,23529,17.38,73962.3,-0.35,-4.41,-7.27,0,*6A
1503511227.15,23530,17.38,73962.5,-0.37,-4.57,-7.39,0,*68
1503511228.37,23531,17.38,73960.8,-0.35,-4.53,-7.23,0,*64
1503511229.56,23532,17.38,73958.5,-0.37,-4.57,-7.15,0,*64
1503511230.75,23533,17.38,73956.5,-0.37,-4.65,-7.15,0,*64
1503511231.96,23534,17.44,73960.8,-0.37,-4.69,-7.15,0,*6F
1503511233.17,23535,17.38,73962.3,-0.37,-4.69,-6.85,0,*66
1503511234.37,23536,17.38,73962.0,-0.37,-4.69,-6.85,0,*65
1503511235.58,23537,17.38,73962.0,-0.37,-4.81,-6.77,0,*6F
1503511236.8,23538,17.44,73962.0,-0.37,-4.89,-6.85,0,*65
1503511238.04,23539,17.38,73960.5,-0.35,-4.89,-6.85,0,*66
1503511239.29,23540,17.38,73960.3,-0.35,-5.03,-6.81,0,*6F
1503511240.53,23541,17.38,73962.8,-0.37,-5.19,-6.63,0,*6B
1503511241.77,23542,17.38,73964.3,-0.35,-5.15,-6.59,0,*6F
1503511242.98,23543,17.38,73962.3,-0.35,-5.43,-6.73,0,*65
1503511244.17,23544,17.44,73962.5,-0.37,-5.43,-6.59,0,*68
1503511245.39,23545,17.38,73962.3,-0.39,-5.55,-6.59,0,*60
1503511246.62,23546,17.38,73960.8,-0.35,-5.55,-6.55,0,*63
1503511247.84,23547,17.38,73960.0,-0.37,-5.81,-6.59,0,*65
1503511249.08,23548,17.44,73964.5,-0.37,-5.81,-6.63,0,*63
1503511250.3,23549,17.38,73960.8,-0.37,-5.85,-6.59,0,*6F
1503511251.5,23550,17.44,73962.3,-0.37,-6.09,-6.59,0,*60
1503511252.68,23551,17.44,73962.8,-0.37,-6.05,-6.59,0,*6D
1503511253.95,23552,17.44,73960.0,-0.35,-5.93,-6.23,0,*6D
1503511255.19,23553,17.38,73962.3,-0.35,-5.77,-6.09,0,*6E
1503511256.46,23554,17.38,73960.3,-0.35,-5.81,-5.93,0,*60
1503511257.65,23555,17.38,73962.0,-0.37,-6.09,-6.05,0,*6C
1503511258.84,23556,17.38,73962.3,-0.37,-6.13,-5.97,0,*6C
1503511260.03,23557,17.38,73962.3,-0.37,-6.35,-6.05,0,*61
1503511261.24,23558,17.38,73964.5,-0.37,-6.23,-6.05,0,*69
1503511262.45,23559,17.38,73962.3,-0.37,-6.27,-6.05,0,*6C
1503511263.63,23560,17.38,73960.0,-0.37,-6.47,-6.09,0,*6C
1503511264.86,23561,17.38,73958.8,-0.37,-6.63,-6.23,0,*63
1503511266.08,23562,17.38,73958.3,-0.37,-6.77,-6.27,0,*61
1503511267.3,23563,17.38,73962.8,-0.37,-6.77,-6.27,0,*60
1503511268.54,23564,17.38,73960.3,-0.37,-6.93,-6.23,0,*69
1503511269.75,23565,17.38,73960.0,-0.37,-6.89,-6.27,0,*67
1503511270.99,23566,17.38,73962.3,-0.37,-6.93,-6.23,0,*6B
1503511272.2,23567,17.38,73960.3,-0.37,-6.89,-6.23,0,*61
1503511273.41,23568,17.38,73962.0,-0.37,-6.89,-6.23,0,*6E
1503511274.68,23569,17.38,73964.5,-0.35,-7.01,-6.19,0,*65
1503511275.87,23570,17.38,73960.8,-0.37,-7.15,-6.35,0,*64
1503511277.07,23571,17.38,73962.8,-0.37,-7.19,-6.39,0,*65
1503511278.28,23572,17.38,73962.0,-0.37,-7.31,-6.47,0,*65
1503511279.5,23573,17.38,73962.0,-0.37,-7.65,-6.59,0,*6A
1503511280.72,23574,17.38,73960.8,-0.37,-7.57,-6.59,0,*6C
1503511281.94,23575,17.38,73962.3,-0.37,-7.57,-6.73,0,*65
1503511283.18,23576,17.38,73962.8,-0.39,-7.57,-6.73,0,*68
1503511284.43,23577,17.38,73960.0,-0.43,-7.73,-6.81,0,*6F
1503511285.65,23578,17.38,73960.5,-0.39,-7.53,-6.77,0,*66
1503511286.89,23579,17.44,73960.5,-0.39,-7.57,-6.77,0,*63
1503511288.11,23580,17.38,73958.3,-0.39,-7.53,-6.85,0,*6C
1503511289.37,23581,17.38,73962.3,-0.39,-7.43,-6.93,0,*6B
1503511290.63,23582,17.38,73960.0,-0.39,-7.39,-7.01,0,*6F
1503511291.89,23583,17.38,73962.0,-0.39,-7.43,-7.05,0,*67
1503511293.14,23584,17.38,73960.5,-0.39,-7.43,-7.23,0,*64
1503511294.38,23585,17.38,73960.3,-0.43,-7.43,-7.23,0,*68
1503511295.62,23586,17.38,73960.0,-0.37,-7.43,-7.31,0,*6B
1503511296.89,23587,17.38,73962.5,-0.43,-7.61,-7.31,0,*69
1503511298.16,23588,17.38,73960.0,-0.39,-7.65,-7.43,0,*6A
1503511299.43,23589,17.38,73960.8,-0.39,-7.77,-7.77,0,*6F
1503511300.69,23590,17.38,73956.3,-0.39,-7.77,-7.69,0,*68
1503511301.91,23591,17.38,73960.0,-0.39,-7.87,-7.83,0,*62
1503511303.17,23592,17.38,73956.5,-0.43,-7.99,-7.91,0,*60
1503511304.44,23593,17.38,73962.3,-0.39,-7.95,-8.07,0,*60
1503511305.7,23594,17.38,73962.3,-0.43,-7.91,-7.99,0,*66
1503511306.96,23595,17.38,73962.5,-0.43,-7.99,-8.11,0,*60
1503511308.23,23596,17.38,73960.3,-0.39,-7.95,-8.11,0,*62
1503511309.46,23597,17.38,73962.5,-0.39,-7.95,-8.33,0,*63
1503511310.73,23598,17.38,73960.5,-0.39,-8.11,-8.51,0,*6B
1503511311.93,23599,17.38,73960.0,-0.39,-8.33,-8.67,0,*6F
1503511313.14,23600,17.38,73962.8,-0.43,-8.25,-8.71,0,*61
1503511314.37,23601,17.38,73960.8,-0.39,-8.33,-8.81,0,*65
1503511315.59,23602,17.38,73960.3,-0.39,-8.63,-9.19,0,*63
1503511316.8,23603,17.38,73956.3,-0.43,-8.55,-9.05,0,*67
1503511318.07,23604,17.38,73960.3,-0.43,-8.51,-9.11,0,*61
1503511319.28,23605,17.38,73962.0,-0.39,-8.45,-9.19,0,*60
1503511320.52,23606,17.38,73960.8,-0.43,-8.51,-9.23,0,*62
1503511321.76,23607,17.38,73960.0,-0.43,-8.67,-9.49,0,*6A
1503511323.02,23608,17.44,73964.3,-0.39,-8.81,-9.57,0,*6F
1503511324.27,23609,17.38,73956.8,-0.43,-8.71,-9.53,0,*68
1503511325.49,23610,17.38,73958.8,-0.43,-8.85,-9.75,0,*6F
1503511326.73,23611,17.38,73960.3,-0.43,-8.81,-9.75,0,*6A
1503511327.95,23612,17.38,73960.5,-0.43,-8.85,-9.75,0,*6D
1503511329.17,23613,17.38,73962.0,-0.43,-9.05,-9.93,0,*6D
1503511330.4,23614,17.38,73956.5,-0.43,-9.23,-10.15,0,*58
1503511331.63,23615,17.38,73962.3,-0.43,-9.23,-10.19,0,*55
1503511332.86,23616,17.38,73960.3,-0.43,-9.19,-10.19,0,*5F
1503511334.11,23617,17.38,73960.3,-0.43,-9.31,-10.41,0,*59
1503511335.32,23618,17.38,73962.0,-0.39,-9.75,-10.85,0,*53
1503511336.54,23619,17.44,73962.5,-0.43,-9.79,-10.85,0,*53
1503511337.78,23620,17.38,73962.5,-0.43,-9.67,-10.71,0,*5D
1503511339.0,23621,17.38,73962.0,-0.43,-9.67,-10.89,0,*5B
1503511340.22,23622,17.38,73962.3,-0.43,-9.67,-10.97,0,*57
1503511341.46,23623,17.38,73960.5,-0.43,-9.61,-11.15,0,*5B
1503511342.68,23624,17.38,73962.8,-0.43,-9.67,-11.01,0,*5F
1503511343.9,23625,17.38,73964.0,-0.43,-9.79,-11.15,0,*54
1503511345.13,23626,17.38,73962.5,-0.43,-9.89,-11.29,0,*57
1503511346.35,23627,17.38,73962.8,-0.43,-9.93,-11.45,0,*57
1503511347.59,23628,17.38,73964.3,-0.43,-10.05,-11.67,0,*6F
1503511348.83,23629,17.38,73962.3,-0.43,-10.05,-11.81,0,*66
1503511350.07,23630,17.38,73964.3,-0.43,-10.05,-11.59,0,*6B
1503511351.28,23631,17.38,73964.0,-0.45,-9.93,-11.51,0,*53
1503511352.5,23632,17.38,73964.0,-0.45,-10.05,-11.51,0,*67
1503511353.71,23633,17.38,73962.0,-0.45,-10.09,-11.59,0,*62
1503511354.95,23634,17.44,73964.8,-0.47,-10.09,-11.51,0,*6F
1503511356.19,23635,17.38,73964.3,-0.45,-10.23,-11.63,0,*65
1503511357.41,23636,17.38,73962.8,-0.45,-10.49,-11.73,0,*6B
1503511358.63,23637,17.38,73960.8,-0.45,-10.53,-11.73,0,*61
1503511359.89,23638,17.38,73958.0,-0.45,-10.63,-11.63,0,*6C
1503511361.11,23639,17.38,73960.3,-0.45,-10.93,-11.73,0,*63
1503511362.36,23640,17.38,73962.5,-0.47,-11.15,-11.77,0,*64
1503511363.64,23641,17.38,73960.8,-0.47,-11.29,-11.73,0,*6E
1503511364.89,23642,17.38,73960.3,-0.47,-11.33,-12.03,0,*62
1503511366.12,23643,17.38,73958.5,-0.47,-11.45,-12.29,0,*6A
1503511367.4,23644,17.38,73958.5,-0.47,-11.59,-12.35,0,*6D
1503511368.66,23645,17.38,73962.5,-0.45,-11.63,-12.35,0,*67
1503511369.91,23646,17.38,73966.0,-0.47,-11.73,-12.29,0,*6A
1503511371.16,23647,17.38,73962.8,-0.47,-11.73,-12.29,0,*6B
1503511372.44,23648,17.38,73962.3,-0.47,-11.97,-12.35,0,*63
1503511373.69,23649,17.38,73962.3,-0.47,-12.11,-12.47,0,*6A
1503511374.94,23650,17.38,73962.3,-0.47,-12.29,-12.61,0,*6D
1503511376.21,23651,17.38,73960.8,-0.47,-12.83,-12.83,0,*60
1503511377.47,23652,17.38,73960.0,-0.49,-12.79,-12.79,0,*6D
1503511378.75,23653,17.38,73960.8,-0.47,-12.71,-12.35,0,*62
1503511379.98,23654,17.38,73962.5,-0.49,-12.39,-12.07,0,*66
1503511381.24,23655,17.38,73960.0,-0.49,-12.53,-12.07,0,*6B
1503511382.46,23656,17.38,73960.8,-0.49,-12.39,-11.77,0,*60
1503511383.72,23657,17.38,73962.0,-0.51,-12.29,-11.89,0,*68
1503511384.97,23658,17.38,73962.8,-0.51,-12.39,-12.07,0,*63
1503511386.2,23659,17.38,73960.0,-0.49,-12.65,-12.29,0,*6E
1503511387.43,23660,17.38,73962.5,-0.49,-12.61,-12.03,0,*68
1503511388.68,23661,17.38,73966.0,-0.49,-12.61,-12.07,0,*6D
1503511389.96,23662,17.38,73960.8,-0.51,-12.61,-12.15,0,*64
1503511391.21,23663,17.38,73960.5,-0.51,-12.65,-12.03,0,*66
1503511392.46,23664,17.38,73960.3,-0.51,-12.47,-11.55,0,*61
1503511393.71,23665,17.38,73960.5,-0.51,-12.39,-11.37,0,*6D
1503511394.96,23666,17.38,73956.5,-0.51,-12.47,-11.37,0,*67
1503511396.17,23667,17.38,73960.0,-0.53,-12.21,-11.11,0,*60
1503511397.45,23668,17.38,73962.0,-0.51,-11.77,-10.79,0,*62
1503511398.7,23669,17.38,73962.5,-0.51,-11.51,-10.93,0,*63
1503511399.93,23670,17.38,73960.5,-0.51,-11.41,-10.85,0,*6D
1503511401.16,23671,17.38,73960.5,-0.51,-11.41,-10.93,0,*6B
1503511402.41,23672,17.38,73960.8,-0.51,-11.51,-10.97,0,*6D
1503511403.63,23673,17.38,73960.5,-0.53,-11.45,-10.97,0,*6B
1503511404.88,23674,17.38,73962.5,-0.53,-11.29,-10.75,0,*6A
1503511406.11,23675,17.38,73960.8,-0.53,-11.11,-10.63,0,*67
1503511407.31,23676,17.38,73964.8,-0.53,-10.85,-10.45,0,*6C
1503511408.57,23677,17.38,73962.0,-0.53,-10.63,-10.41,0,*61
1503511409.79,23678,17.38,73962.5,-0.53,-10.57,-10.71,0,*6A
1503511411.02,23679,17.38,73960.5,-0.53,-10.57,-10.75,0,*6F
1503511412.25,23680,17.38,73960.3,-0.53,-10.57,-10.75,0,*69
1503511413.47,23681,17.38,73962.8,-0.53,-10.45,-10.71,0,*6F
1503511414.7,23682,17.38,73956.5,-0.53,-10.19,-10.63,0,*66
1503511415.9,23683,17.38,73960.0,-0.53,-10.01,-10.97,0,*65
1503511417.09,23684,17.38,73960.0,-0.53,-9.89,-10.97,0,*5A
1503511418.29,23685,17.38,73964.3,-0.53,-9.79,-11.15,0,*5F
1503511419.48,23686,17.38,73962.5,-0.53,-9.75,-11.45,0,*55
1503511420.7,23687,17.38,73958.8,-0.53,-9.79,-11.97,0,*57
1503511421.92,23688,17.38,73960.3,-0.55,-10.01,-12.21,0,*67
1503511423.15,23689,17.38,73966.8,-0.55,-10.15,-12.39,0,*6A
1503511424.41,23690,17.38,73960.3,-0.53,-10.41,-12.79,0,*61
1503511425.62,23691,17.38,73962.8,-0.55,-10.53,-13.07,0,*6D
1503511426.87,23692,17.38,73966.0,-0.55,-10.57,-13.29,0,*66
1503511428.13,23693,17.38,73960.3,-0.55,-10.75,-13.79,0,*62
1503511429.33,23694,17.38,73962.3,-0.53,-10.85,-14.29,0,*6E
1503511430.58,23695,17.38,73960.3,-0.55,-11.15,-14.83,0,*61
1503511431.83,23696,17.38,73962.0,-0.53,-11.37,-14.97,0,*61
1503511433.07,23697,17.38,73960.3,-0.55,-11.45,-15.25,0,*6B
1503511434.3,23698,17.38,73962.3,-0.53,-11.55,-15.53,0,*62
1503511435.56,23699,17.38,73960.8,-0.55,-11.45,-15.39,0,*68
1503511436.82,23700,17.38,73962.8,-0.55,-11.41,-15.57,0,*65
1503511438.05,23701,17.38,73966.0,-0.55,-11.41,-15.95,0,*6A
1503511439.3,23702,17.38,73966.0,-0.55,-11.41,-16.69,0,*69
1503511440.57,23703,17.38,73962.5,-0.55,-11.85,-17.63,0,*6B
1503511441.81,23704,17.38,73960.5,-0.55,-12.07,-18.25,0,*68
1503511443.06,23705,17.38,73962.0,-0.55,-12.35,-18.65,0,*6C
1503511444.3,23706,17.38,73960.8,-0.55,-12.43,-18.89,0,*6C
1503511445.5,23707,17.38,73964.3,-0.57,-12.89,-19.47,0,*6A
1503511446.7,23708,17.38,73964.3,-0.57,-13.15,-19.75,0,*60
1503511447.95,23709,17.38,73960.8,-0.55,-13.51,-20.35,0,*6D
1503511449.21,23710,17.38,73958.5,-0.57,-13.87,-20.53,0,*6C
1503511450.42,23711,17.38,73962.0,-0.57,-14.11,-20.59,0,*6F
1503511451.63,23712,17.38,73962.8,-0.57,-14.11,-20.59,0,*6C
1503511452.87,23713,17.38,73958.5,-0.57,-14.19,-20.53,0,*6F
1503511454.15,23714,17.38,73964.3,-0.59,-14.43,-21.33,0,*6E
1503511455.39,23715,17.38,73962.0,-0.59,-14.97,-22.41,0,*60
1503511456.67,23716,17.38,73962.5,-0.59,-15.43,-22.77,0,*6E
1503511457.91,23717,17.38,73964.5,-0.59,-15.75,-23.09,0,*62
1503511459.16,23718,17.38,73960.3,-0.59,-16.17,-23.39,0,*69
1503511460.39,23719,17.38,73962.0,-0.59,-16.59,-23.59,0,*64
1503511461.63,23720,17.38,73960.8,-0.59,-16.79,-23.43,0,*67
1503511462.87,23721,17.38,73960.0,-0.59,-16.51,-22.41,0,*6F
1503511464.13,23722,17.38,73960.3,-0.59,-15.89,-21.47,0,*6F
1503511465.38,23723,17.38,73960.0,-0.61,-15.89,-21.83,0,*6D
1503511466.64,23724,17.38,73966.3,-0.61,-16.13,-22.47,0,*61
1503511467.9,23725,17.38,73962.8,-0.63,-16.79,-23.03,0,*6F
1503511469.12,23726,17.38,73966.0,-0.63,-16.93,-23.13,0,*69
1503511470.32,23727,17.38,73966.3,-0.61,-16.97,-23.13,0,*6E
1503511471.55,23728,17.38,73960.5,-0.61,-17.25,-22.83,0,*61
1503511472.82,23729,17.38,73964.0,-0.63,-17.25,-22.21,0,*6A
1503511474.08,23730,17.38,73962.8,-0.63,-16.97,-21.83,0,*61
1503511475.33,23731,17.38,73962.5,-0.63,-16.93,-21.87,0,*60
1503511476.58,23732,17.38,73966.8,-0.63,-16.83,-21.87,0,*62
1503511477.84,23733,17.38,73962.3,-0.63,-16.83,-21.67,0,*6D
1503511479.1,23734,17.38,73962.3,-0.63,-16.69,-21.39,0,*65
1503511480.38,23735,17.38,73964.8,-0.63,-16.51,-21.23,0,*64
1503511481.61,23736,17.38,73960.3,-0.63,-16.55,-21.73,0,*66
1503511482.84,23737,17.38,73964.8,-0.67,-16.75,-22.57,0,*64
1503511484.12,23738,17.38,73960.8,-0.67,-17.03,-23.23,0,*69
1503511485.39,23739,17.38,73964.0,-0.67,-17.59,-23.95,0,*6A
1503511486.61,23740,17.38,73964.8,-0.67,-18.25,-24.31,0,*69
1503511487.84,23741,17.38,73966.8,-0.67,-18.69,-24.47,0,*61
1503511489.05,23742,17.38,73960.3,-0.69,-18.69,-24.51,0,*6B
1503511490.24,23743,17.38,73960.3,-0.69,-18.45,-24.35,0,*66
1503511491.49,23744,17.38,73960.5,-0.67,-18.21,-23.99,0,*6C
1503511492.74,23745,17.38,73962.8,-0.67,-18.21,-23.53,0,*6B
1503511493.94,23746,17.38,73964.5,-0.69,-18.25,-22.63,0,*60
1503511495.19,23747,17.38,73962.8,-0.69,-17.79,-21.83,0,*6A
1503511496.42,23748,17.38,73960.5,-0.69,-17.41,-21.63,0,*60
1503511497.67,23749,17.38,73966.0,-0.69,-17.17,-21.67,0,*66
1503511498.89,23750,17.38,73964.3,-0.69,-17.07,-22.41,0,*68
1503511500.12,23751,17.38,73964.8,-0.69,-17.69,-23.85,0,*68
1503511501.34,23752,17.38,73960.5,-0.71,-19.03,-24.97,0,*64
1503511502.53,23753,17.38,73960.8,-0.73,-20.29,-25.91,0,*62
1503511503.72,23754,17.38,73960.0,-0.73,-21.43,-26.07,0,*64
1503511505.0,23755,17.38,73962.8,-0.71,-22.17,-26.17,0,*64
1503511506.22,23756,17.38,73962.8,-0.73,-22.83,-26.17,0,*68
1503511507.42,23757,17.38,73964.0,-0.73,-23.09,-25.87,0,*60
1503511508.65,23758,17.38,73960.3,-0.73,-22.97,-25.45,0,*67
1503511509.85,23759,17.38,73962.3,-0.73,-22.83,-25.09,0,*6B
1503511511.1,23760,17.38,73964.5,-0.71,-22.83,-24.87,0,*64
1503511512.29,23761,17.38,73964.5,-0.73,-22.83,-24.57,0,*6A
1503511513.49,23762,17.38,73962.3,-0.73,-23.09,-24.47,0,*6B
1503511514.72,23763,17.38,73966.5,-0.73,-23.59,-25.03,0,*6E
1503511515.94,23764,17.38,73962.3,-0.73,-24.11,-25.19,0,*69
1503511517.17,23765,17.38,73962.5,-0.73,-24.11,-24.77,0,*61
1503511518.39,23766,17.38,73962.3,-0.77,-24.15,-24.35,0,*64
1503511519.64,23767,17.38,73968.0,-0.77,-23.65,-23.99,0,*64
1503511520.91,23768,17.38,73964.0,-0.75,-23.33,-23.95,0,*66
1503511522.1,23769,17.38,73962.5,-0.77,-23.39,-23.79,0,*6D
1503511523.32,23770,17.38,73962.3,-0.77,-23.13,-23.65,0,*60
1503511524.57,23771,17.38,73966.3,-0.77,-23.19,-23.53,0,*6E
1503511525.79,23772,17.38,73960.0,-0.77,-23.23,-23.39,0,*68
1503511527.02,23773,17.38,73962.5,-0.77,-23.39,-23.23,0,*69
1503511528.26,23774,17.38,73964.0,-0.77,-23.69,-23.33,0,*6A
1503511529.46,23775,17.38,73962.5,-0.77,-23.79,-23.13,0,*68
1503511530.71,23776,17.38,73962.0,-0.77,-23.65,-23.03,0,*67
1503511531.94,23777,17.38,73966.3,-0.79,-23.39,-22.83,0,*68
1503511533.19,23778,17.38,73964.3,-0.81,-23.53,-22.73,0,*63
1503511534.43,23779,17.38,73966.5,-0.79,-23.23,-22.41,0,*63
1503511535.68,23780,17.38,73964.0,-0.79,-23.23,-22.11,0,*60
1503511536.94,23781,17.38,73964.8,-0.79,-23.19,-22.07,0,*6F
1503511538.19,23782,17.38,73962.5,-0.79,-23.33,-22.11,0,*63
1503511539.41,23783,17.38,73966.8,-0.79,-23.39,-22.11,0,*68
1503511540.61,23784,17.38,73964.8,-0.81,-23.39,-21.93,0,*61
1503511541.84,23785,17.38,73966.3,-0.81,-22.93,-21.33,0,*6B
1503511543.1,23786,17.38,73966.0,-0.81,-22.31,-20.99,0,*61
1503511544.35,23787,17.38,73966.5,-0.79,-22.11,-21.03,0,*67
1503511545.58,23788,17.38,73962.8,-0.81,-22.07,-21.03,0,*68
1503511546.83,23789,17.38,73962.0,-0.81,-21.97,-21.03,0,*63
1503511548.07,23790,17.38,73966.5,-0.83,-21.47,-20.59,0,*6A
1503511549.33,23791,17.38,73968.8,-0.83,-21.03,-20.43,0,*60
1503511550.57,23792,17.38,73966.3,-0.83,-20.89,-20.59,0,*6B
1503511551.83,23793,17.38,73968.0,-0.83,-20.99,-20.43,0,*60
1503511553.1,23794,17.38,73964.8,-0.83,-20.83,-20.39,0,*61
1503511554.35,23795,17.38,73960.8,-0.85,-21.23,-20.93,0,*6D
1503511555.62,23796,17.38,73964.5,-0.85,-21.23,-21.03,0,*66
1503511556.91,23797,17.38,73964.0,-0.83,-21.23,-20.99,0,*63
1503511558.18,23798,17.38,73964.5,-0.85,-21.27,-21.03,0,*6C
1503511559.44,23799,17.38,73960.0,-0.83,-21.13,-21.03,0,*6C
1503511560.68,23800,17.38,73964.0,-0.85,-21.03,-21.09,0,*6E
1503511561.91,23801,17.38,73962.3,-0.85,-20.63,-20.93,0,*6A
1503511563.15,23802,17.38,73960.5,-0.85,-20.43,-20.89,0,*60
1503511564.37,23803,17.38,73964.8,-0.85,-20.29,-20.89,0,*6D
1503511565.61,23804,17.38,73962.0,-0.85,-20.35,-21.39,0,*6D
1503511566.83,23805,17.38,73968.0,-0.89,-20.63,-21.73,0,*6D
1503511568.05,23806,17.38,73962.0,-0.89,-20.63,-21.63,0,*6F
1503511569.27,23807,17.38,73960.5,-0.89,-20.39,-21.43,0,*63
1503511570.51,23808,17.38,73964.0,-0.89,-20.35,-21.47,0,*64
1503511571.75,23809,17.38,73962.0,-0.91,-20.19,-21.57,0,*63
1503511572.95,23810,17.38,73964.8,-0.91,-19.99,-21.73,0,*6F
1503511574.2,23811,17.38,73964.3,-0.89,-19.61,-21.63,0,*61
1503511575.41,23812,17.38,73970.8,-0.91,-19.13,-21.63,0,*6E
1503511576.67,23813,17.38,73964.3,-0.91,-18.93,-21.87,0,*6C
1503511577.9,23814,17.38,73966.3,-0.91,-18.93,-22.27,0,*62
1503511579.11,23815,17.38,73966.5,-0.91,-18.99,-22.57,0,*6E
1503511580.31,23816,17.38,73966.5,-0.91,-18.99,-22.83,0,*64
1503511581.53,23817,17.38,73966.0,-0.89,-18.83,-22.87,0,*63
1503511582.76,23818,17.38,73966.8,-0.91,-18.79,-23.03,0,*6D
1503511584.01,23819,17.38,73966.8,-0.93,-18.83,-23.33,0,*68
1503511585.28,23820,17.38,73966.5,-0.93,-18.89,-23.69,0,*67
1503511586.53,23821,17.38,73964.0,-0.93,-18.83,-23.69,0,*6C
1503511587.78,23822,17.38,73966.0,-0.93,-18.83,-23.85,0,*6D
1503511589.0,23823,17.38,73966.3,-0.95,-18.83,-24.15,0,*64
1503511590.23,23824,17.38,73970.3,-0.93,-18.83,-24.31,0,*63
1503511591.43,23825,17.38,73966.5,-0.95,-18.83,-24.57,0,*64
1503511592.66,23826,17.38,73968.3,-0.95,-18.83,-24.83,0,*6E
1503511593.91,23827,17.38,73970.3,-0.93,-18.83,-24.87,0,*6D
1503511595.14,23828,17.38,73968.3,-0.93,-18.73,-25.13,0,*61
1503511596.37,23829,17.38,73968.0,-0.95,-18.89,-25.65,0,*62
1503511597.63,23830,17.38,73970.5,-0.95,-19.27,-25.97,0,*62
1503511598.86,23831,17.38,73970.0,-0.93,-19.47,-26.49,0,*63
1503511600.14,23832,17.38,73966.8,-0.93,-19.61,-26.81,0,*60
1503511601.37,23833,17.38,73964.5,-0.95,-19.75,-26.97,0,*65
1503511602.57,23834,17.38,73964.8,-0.95,-20.09,-27.29,0,*67
1503511603.77,23835,17.38,73966.8,-0.95,-20.43,-27.71,0,*65
1503511605.01,23836,17.38,73964.5,-0.95,-20.59,-28.05,0,*61
1503511606.22,23837,17.38,73966.5,-0.95,-20.89,-28.31,0,*6A
1503511607.49,23838,17.38,73966.3,-0.97,-21.33,-28.75,0,*67
1503511608.77,23839,17.38,73968.5,-0.97,-21.53,-28.91,0,*6A
1503511610.01,23840,17.38,73966.3,-0.97,-21.57,-29.07,0,*6E
1503511611.29,23841,17.38,73964.0,-0.97,-21.87,-29.39,0,*6F
1503511612.51,23842,17.38,73964.3,-0.99,-22.21,-29.79,0,*69
1503511613.77,23843,17.38,73966.3,-0.97,-22.53,-30.01,0,*64
1503511615.03,23844,17.38,73966.3,-0.97,-22.83,-30.17,0,*69
1503511616.26,23845,17.38,73966.0,-0.99,-23.19,-30.33,0,*62
1503511617.51,23846,17.38,73970.0,-0.99,-23.33,-30.39,0,*63
1503511618.75,23847,17.38,73968.0,-0.99,-23.65,-30.83,0,*60
1503511620.01,23848,17.38,73968.5,-0.99,-23.95,-31.11,0,*6A
1503511621.3,23849,17.38,73966.0,-1.01,-24.25,-31.23,0,*56
1503511622.57,23850,17.38,73966.3,-1.01,-24.51,-31.23,0,*5D
1503511623.83,23851,17.38,73966.0,-1.01,-24.93,-31.23,0,*52
1503511625.06,23852,17.38,73970.0,-1.01,-25.23,-31.45,0,*5B
1503511626.34,23853,17.38,73970.0,-1.01,-25.45,-31.61,0,*5C
1503511627.6,23854,17.38,73968.3,-1.01,-25.65,-31.73,0,*5A
1503511628.88,23855,17.38,73966.0,-1.01,-25.81,-31.61,0,*52
1503511630.1,23856,17.38,73966.3,-1.03,-26.03,-31.67,0,*5C
1503511631.35,23857,17.38,73966.5,-1.01,-26.23,-31.73,0,*58
1503511632.61,23858,17.38,73970.3,-1.01,-26.39,-31.61,0,*5F
1503511633.86,23859,17.38,73966.8,-1.03,-26.71,-31.85,0,*5A
1503511635.08,23860,17.38,73964.3,-1.03,-26.65,-31.67,0,*59
1503511636.34,23861,17.38,73966.3,-1.01,-26.45,-31.61,0,*5E
1503511637.59,23862,17.38,73966.0,-1.05,-26.71,-31.67,0,*58
1503511638.84,23863,17.38,73964.5,-1.05,-27.19,-32.01,0,*55
1503511640.1,23864,17.38,73964.8,-1.05,-27.71,-32.19,0,*55
1503511641.33,23865,17.38,73964.3,-1.03,-27.99,-32.23,0,*5D
1503511642.57,23866,17.38,73968.8,-1.07,-28.05,-32.23,0,*50
1503511643.8,23867,17.38,73968.3,-1.05,-28.31,-32.23,0,*54
1503511645.05,23868,17.38,73966.0,-1.05,-28.47,-32.39,0,*51
1503511646.31,23869,17.38,73968.0,-1.07,-28.75,-32.45,0,*58
1503511647.55,23870,17.38,73968.8,-1.07,-28.97,-32.45,0,*5C
1503511648.79,23871,17.38,73968.3,-1.05,-28.85,-32.51,0,*59
1503511650.02,23872,17.38,73966.3,-1.07,-29.13,-32.57,0,*50
1503511651.29,23873,17.38,73964.8,-1.07,-29.29,-32.79,0,*54
1503511652.52,23874,17.38,73964.8,-1.07,-29.73,-33.15,0,*57
1503511653.74,23875,17.38,73966.8,-1.07,-30.27,-33.37,0,*5F
1503511654.97,23876,17.38,73964.3,-1.11,-30.33,-33.31,0,*58
1503511656.23,23877,17.38,73966.5,-1.13,-30.51,-33.37,0,*59
1503511657.48,23878,17.38,73964.5,-1.11,-30.51,-33.49,0,*5D
1503511658.74,23879,17.38,73966.5,-1.13,-30.83,-33.89,0,*5D
1503511660.0,23880,17.38,73964.3,-1.13,-31.01,-33.89,0,*50
1503511661.21,23881,17.38,73964.0,-1.15,-31.17,-34.13,0,*54
1503511662.41,23882,17.38,73960.5,-1.15,-31.29,-34.25,0,*5F
1503511663.69,23883,17.38,73964.3,-1.13,-31.39,-34.31,0,*5C
1503511664.94,23884,17.38,73962.0,-1.13,-31.57,-34.41,0,*54
1503511666.15,23885,17.38,73964.8,-1.15,-31.79,-34.41,0,*5F
1503511667.39,23886,17.38,73964.0,-1.15,-31.95,-34.47,0,*58
1503511668.6,23887,17.38,73964.3,-1.15,-31.79,-34.41,0,*5D
1503511669.82,23888,17.38,73964.0,-1.15,-31.91,-34.41,0,*54
1503511671.06,23889,17.38,73964.8,-1.17,-32.01,-34.53,0,*5E
1503511672.26,23890,17.38,73964.3,-1.17,-32.23,-34.47,0,*53
1503511673.5,23891,17.38,73962.8,-1.17,-32.29,-34.53,0,*5D
1503511674.7,23892,17.38,73960.5,-1.17,-32.13,-34.47,0,*52
1503511675.93,23893,17.38,73962.5,-1.17,-32.13,-34.53,0,*56
1503511677.16,23894,17.38,73964.3,-1.17,-32.39,-34.53,0,*59
1503511678.39,23895,17.38,73962.5,-1.17,-32.51,-34.53,0,*56
1503511679.61,23896,17.38,73960.3,-1.17,-32.35,-34.53,0,*57
1503511680.81,23897,17.38,73962.8,-1.17,-32.39,-34.47,0,*5F
1503511682.03,23898,17.38,73960.5,-1.17,-32.39,-34.31,0,*51
1503511683.28,23899,17.38,73964.3,-1.19,-32.51,-34.01,0,*53
1503511684.54,23900,17.38,73960.3,-1.19,-32.85,-34.47,0,*59
1503511685.8,23901,17.38,73964.8,-1.21,-33.43,-34.95,0,*57
1503511687.05,23902,17.38,73960.3,-1.19,-33.43,-34.71,0,*55
1503511688.25,23903,17.38,73960.5,-1.21,-33.55,-34.71,0,*58
1503511689.45,23904,17.38,73962.8,-1.21,-33.55,-34.71,0,*5F
1503511690.74,23905,17.38,73962.8,-1.19,-33.49,-34.65,0,*5D
1503511691.94,23906,17.38,73960.8,-1.21,-33.83,-34.77,0,*50
1503511693.2,23907,17.38,73964.5,-1.23,-33.89,-34.77,0,*59
1503511694.43,23908,17.38,73960.8,-1.23,-33.95,-34.77,0,*5B
1503511695.69,23909,17.38,73960.8,-1.23,-34.13,-34.83,0,*58
1503511696.94,23910,17.38,73962.0,-1.23,-34.07,-34.83,0,*55
1503511698.2,23911,17.38,73962.3,-1.23,-33.95,-34.65,0,*50